User: anonymous   Login
Location: Unspecified
(0.0000°N, 0.0000°E)
Time: 18:06:37
(UTC+00:00)
Language:

OAO 2 - Orbit

View from above orbital plane
View from above orbital plane
View from above satellite
View from above satellite

Ground track
Ground track

The orbit is defined by the following mean orbital elements,

1 03597U          26133.42366705 +.00000000 +00000-0 +34289-4 0 00005
2 03597  34.9936 263.7861 0005711 349.7178  10.3395 14.47338785    07
Epoch (UTC): 13 May 2026 10:10:04
Eccentricity: 0.0005711
inclination: 34.9936°
perigee height: 730 km
apogee height: 738 km
right ascension of ascending node: 263.7861°
argument of perigee: 349.7178°
revolutions per day: 14.47338785
mean anomaly at epoch: 10.3395°

The dashed part of the orbit path shows where the satellite is in the earth's shadow,  

DLR